AKDT,Max TemperatureF,Mean TemperatureF,Min TemperatureF,Max Dew PointF,MeanDew PointF,Min DewpointF,Max Humidity, Mean Humidity, Min Humidity, Max Sea Level PressureIn, Mean Sea Level PressureIn, Min Sea Level PressureIn, Max VisibilityMiles, Mean VisibilityMiles, Min VisibilityMiles, Max Wind SpeedMPH, Mean Wind SpeedMPH, Max Gust SpeedMPH,PrecipitationIn, CloudCover, Events, WindDirDegrees
2012-10-1,30,35,30,36,34,30,100,93,89,30.18,30.14,30.09,10,9,1,14,9,,0.00,5,,124
2012-10-2,36,34,28,35,30,25,92,85,77,30.17,30.08,30.00,10,10,10,10,6,,0.00,0,,149
2012-10-3,37,40,33,36,32,30,89,79,59,30.02,30.00,29.99,10,10,10,14,7,,0.00,3,,193
2012-10-4,37,38,36,37,35,32,97,92,83,30.02,29.99,29.95,10,10,10,16,9,,0.00,5,,135
2012-10-5,35,38,33,39,36,33,100,98,82,29.97,29.94,29.90,10,5,0,21,15,,0.06,6,Fog-Rain,120
2012-10-6,37,38,33,36,33,30,89,80,68,30.02,29.92,29.87,10,10,10,16,10,,0.00,4,,220
2012-10-7,36,38,33,35,32,30,92,81,62,30.14,30.11,30.04,10,10,9,20,13,,0.00,4,Rain,245
2012-10-8,37,34,30,36,32,24,100,93,70,30.49,30.28,30.15,10,5,2,25,17,28,0.01,8,Rain-Snow,330
2012-10-9,30,29,28,30,28,26,100,93,86,30.62,30.55,30.49,10,4,0,41,30,50,0.00,8,Fog-Snow,271
2012-10-10,28,29,28,31,29,26,100,99,92,30.60,30.54,30.41,10,5,1,32,29,37,0.00,7,Snow,270
2012-10-11,28,24,19,28,25,20,100,97,81,30.39,30.05,29.81,10,6,1,33,23,39,0.00,5,Snow,265
2012-10-12,28,30,26,33,31,30,100,99,93,29.81,29.74,29.71,10,5,0,31,22,37,0.00,6,Snow,281
2012-10-13,24,24,19,25,22,16,96,89,80,29.71,29.68,29.64,10,9,2,28,21,32,0.00,3,Snow,257
2012-10-14,23,16,8,23,19,6,100,93,81,29.63,29.47,29.43,10,6,1,21,10,20,0.00,3,Snow,208
2012-10-15,25,21,19,21,19,15,93,86,78,29.58,29.50,29.42,10,9,5,26,20,32,0.00,3,Snow,251
2012-10-16,26,25,24,25,24,23,100,97,92,29.60,29.59,29.58,9,3,2,21,15,,0.00,2,Snow,275
2012-10-17,28,30,28,32,30,28,100,100,96,29.94,29.92,29.90,4,2,1,21,14,23,0.00,7,Snow,282
2012-10-18,24,29,26,32,30,26,100,99,93,30.22,30.07,29.94,10,4,2,20,12,,0.00,8,Snow,106
2012-10-19,27,26,24,29,28,24,100,100,93,30.38,30.29,30.22,10,4,0,23,15,24,0.00,8,Fog-Snow,273
2012-10-20,6,17,7,27,18,5,100,97,92,30.53,30.48,30.38,10,7,0,18,13,,0.00,7,Fog-Snow,232
2012-10-21,9,12,5,14,8,3,100,89,81,30.53,30.48,30.38,10,10,9,9,7,,0.00,0,Snow,190
2012-10-22,24,11,5,16,8,1,93,87,79,30.47,30.38,30.34,10,10,9,15,8,,0.00,4,,233
2012-10-23,30,20,9,29,24,5,100,94,78,30.74,30.65,30.49,10,9,2,24,17,26,0.00,6,Snow,272
2012-10-24,17,28,21,29,28,19,100,95,89,30.81,30.79,30.71,10,10,7,15,11,,0.00,8,,262
2012-10-25,30,21,12,31,22,10,100,93,81,30.70,30.48,30.38,10,7,2,23,10,,0.00,4,Snow,241
2012-10-26,30,30,30,31,30,28,100,99,93,30.38,30.34,30.30,10,6,1,26,20,31,0.00,8,Snow,280
2012-10-27,30,31,30,32,30,27,100,97,88,30.30,30.10,29.97,10,4,0,37,20,40,0.00,8,Fog-Snow,279
2012-10-28,27,27,24,31,26,23,100,96,86,30.14,30.08,29.98,10,4,1,46,35,52,0.00,7,Snow,276
2012-10-29,21,23,19,27,23,18,100,94,86,29.99,29.94,29.91,10,5,1,36,29,41,0.00,6,Snow,269
2012-10-30,26,24,19,27,22,19,100,97,74,30.22,30.11,30.02,10,2,0,40,34,47,0.00,7,Fog-Snow,283
2012-10-31,19,24,19,27,22,16,100,87,74,30.44,30.33,30.23,10,7,0,30,13,32,0.00,7,Fog-Snow,35